Location: São Paulo
(23.5507°S, 46.6334°W)
Time: 09:44:48
(UTC-03:00)

Transit 4A - Pass Details

Date: 20 February 2026
Orbit: 864 x 977 km, 66.8° (Epoch: 11 March)

Event Time Altitude Azimuth Distance (km) Brightness Sun altitude
Rises 02:35:48 0° 235° (SW) 3,473 - -42.2°
Reaches altitude 10° 02:40:41 10° 271° (W) 2,511 - -41.4°
Maximum altitude 02:41:55 11° 283° (WNW) 2,458 - -41.2°
Drops below altitude 10° 02:43:08 10° 296° (WNW) 2,502 - -40.9°
Sets 02:48:00 0° 332° (NNW) 3,428 - -40.1°
